Date String (YYYY-MM-DD hh:mm:ss) UTC,Instrument flags,absolute air pressure of the measurement (hPa),sample flow rate (lpm),inlet stack bypass flow (lpm),air temperature of the measurement (°C),ambient temperature measured by the external sensor (°C),aerosol sample conditioner tube jacket temperature (°C),OPC LED temperature (°C),internal box temperature (°C),relative humidity of the measurement (%),span deviation,mass concentration of particles derived from Lorenz-Mie calculation of OPC scattering (μg/m³),mass concentration of particles derived from Lorenz-Mie calculation of OPC scattering (μg/m³),mass concentration of particles derived from Lorenz-Mie calculation of OPC scattering (μg/m³)
DateTimeUTC,F1_M11,P_M11,Q1_M11,Q2_M11,T1_M11,T2_M11,T3_M11,T4_M11,T5_M11,U1_M11,ZSPAN_M11,X0_M11,X2_M11,X1_M11
2023-09-26 03:00:00,SystemResetWarning,0835.6,5.01,000.00,028.1,027.0,000.0,036.5,029.9,11.4,0000.0,0009.51,0004.18,0003.36
2023-09-26 03:01:00,SystemResetWarning,0835.6,5.00,000.00,028.2,027.1,000.0,036.5,029.9,11.4,0000.0,0009.72,0004.23,0003.36
2023-09-26 03:02:00,SystemResetWarning,0835.6,5.00,000.00,028.2,027.2,000.0,036.5,029.9,11.3,0000.0,0009.60,0004.24,0003.36
2023-09-26 03:03:00,SystemResetWarning,0835.7,5.01,000.00,028.2,027.2,000.0,036.5,030.0,11.3,0000.0,0009.64,0004.25,0003.36
2023-09-26 03:04:00,SystemResetWarning,0835.7,5.00,000.00,028.3,027.3,000.0,036.6,030.0,11.2,0000.0,0009.48,0004.26,0003.36
2023-09-26 03:05:00,SystemResetWarning,0835.7,5.00,000.00,028.3,027.3,000.0,036.6,030.0,11.2,0000.0,0009.31,0004.26,0003.35
2023-09-26 03:06:00,SystemResetWarning,0835.6,5.00,000.00,028.3,027.3,000.0,036.6,030.1,11.1,0000.0,0009.99,0004.31,0003.36
2023-09-26 03:07:00,SystemResetWarning,0835.7,4.97,000.00,028.3,025.8,000.0,036.6,030.0,11.1,0000.0,0010.31,0004.29,0003.36
2023-09-26 03:08:00,SystemResetWarning,0835.7,5.01,000.00,028.3,024.5,000.0,036.6,029.9,11.2,0000.0,0010.21,0004.24,0003.36
2023-09-26 03:09:00,SystemResetWarning,0835.7,5.01,000.00,028.2,024.4,000.0,036.5,029.7,11.2,0000.0,0010.30,0004.26,0003.36
2023-09-26 03:10:00,SystemResetWarning,0835.6,5.00,000.00,028.1,024.7,000.0,036.5,029.5,11.3,0000.0,0010.27,0004.23,0003.36
2023-09-26 03:11:00,SystemResetWarning,0835.8,4.99,000.00,028.0,025.0,000.0,036.5,029.5,11.4,0000.0,0010.46,0004.25,0003.36
2023-09-26 03:12:00,SystemResetWarning,0835.6,4.99,000.00,028.0,025.4,000.0,036.5,029.5,11.4,0000.0,0010.44,0004.24,0003.37
2023-09-26 03:13:00,SystemResetWarning,0835.7,5.01,000.00,028.0,025.7,000.0,036.5,029.5,11.4,0000.0,0010.42,0004.22,0003.38
2023-09-26 03:14:00,SystemResetWarning,0835.6,5.00,000.00,028.0,026.0,000.0,036.5,029.6,11.4,0000.0,0010.47,0004.23,0003.39
2023-09-26 03:15:00,SystemResetWarning,0835.6,5.00,000.00,028.0,026.2,000.0,036.5,029.6,11.4,0000.0,0010.44,0004.22,0003.40
2023-09-26 03:16:00,SystemResetWarning,0835.7,5.00,000.00,028.0,026.4,000.0,036.5,029.7,11.4,0000.0,0010.60,0004.18,0003.40
2023-09-26 03:17:00,SystemResetWarning,0835.6,5.00,000.00,028.0,026.6,000.0,036.5,029.7,11.4,0000.0,0010.50,0004.16,0003.40
2023-09-26 03:18:00,SystemResetWarning,0835.6,5.00,000.00,028.1,026.7,000.0,036.5,029.8,11.4,0000.0,0010.13,0004.14,0003.39
2023-09-26 03:19:00,SystemResetWarning,0835.6,5.00,000.00,028.1,026.8,000.0,036.5,029.8,11.3,0000.0,0010.30,0004.18,0003.39
2023-09-26 03:20:00,SystemResetWarning,0835.8,5.00,000.00,028.1,026.9,000.0,036.5,029.8,11.3,0000.0,0010.18,0004.15,0003.38
2023-09-26 03:21:00,SystemResetWarning,0835.7,5.00,000.00,028.2,027.0,000.0,036.5,029.9,11.4,0000.0,0010.95,0004.21,0003.37
2023-09-26 03:22:00,SystemResetWarning,0835.7,5.00,000.00,028.2,027.1,000.0,036.5,029.9,11.3,0000.0,0012.12,0004.19,0003.37
2023-09-26 03:23:00,SystemResetWarning,0835.8,4.99,000.00,028.2,027.1,000.0,036.5,029.9,11.3,0000.0,0012.74,0004.19,0003.37
2023-09-26 03:24:00,SystemResetWarning,0835.7,5.01,000.00,028.3,027.2,000.0,036.6,030.0,11.4,0000.0,0013.83,0004.22,0003.38
2023-09-26 03:25:00,SystemResetWarning,0835.7,5.00,000.00,028.3,027.3,000.0,036.6,030.0,11.2,0000.0,0013.99,0004.21,0003.37
2023-09-26 03:26:00,SystemResetWarning,0835.7,5.00,000.00,028.3,027.3,000.0,036.6,030.0,11.1,0000.0,0014.96,0004.26,0003.38
2023-09-26 03:27:00,SystemResetWarning,0835.8,5.01,000.00,028.3,027.3,000.0,036.6,030.1,11.2,0000.0,0015.52,0004.29,0003.38
2023-09-26 03:28:00,SystemResetWarning,0835.8,5.00,000.00,028.4,027.4,000.0,036.6,030.1,11.3,0000.0,0016.42,0004.29,0003.38
2023-09-26 03:29:00,SystemResetWarning,0835.8,4.98,000.00,028.4,026.6,000.0,036.7,030.1,11.2,0000.0,0016.00,0004.29,0003.38
2023-09-26 03:30:00,SystemResetWarning,0835.8,5.01,000.00,028.3,024.8,000.0,036.6,030.0,11.1,0000.7,0015.35,0004.24,0003.39
2023-09-26 03:31:00,SystemResetWarning,0835.8,5.01,000.00,028.3,024.4,000.0,036.6,029.8,11.2,0001.1,0015.24,0004.23,0003.40
2023-09-26 03:32:00,SystemResetWarning,0835.8,5.01,000.00,028.1,024.5,000.0,036.6,029.6,11.4,0000.4,0014.82,0004.18,0003.40
2023-09-26 03:33:00,SystemResetWarning,0835.8,5.00,000.00,028.1,024.9,000.0,036.6,029.5,11.4,0001.3,0013.53,0004.16,0003.39
2023-09-26 03:34:00,SystemResetWarning,0835.8,5.00,000.00,028.0,025.2,000.0,036.6,029.5,11.5,0000.7,0012.66,0004.15,0003.39
2023-09-26 03:35:00,SystemResetWarning,0835.8,5.00,000.00,028.0,025.6,000.0,036.6,029.6,11.5,-000.1,0011.65,0004.16,0003.39
2023-09-26 03:36:00,SystemResetWarning,0835.8,5.00,000.00,028.0,025.9,000.0,036.6,029.6,11.4,0000.2,0011.22,0004.16,0003.39
2023-09-26 03:37:00,SystemResetWarning,0835.8,5.00,000.00,028.0,026.1,000.0,036.5,029.6,11.4,0000.1,0011.12,0004.18,0003.39
2023-09-26 03:38:00,SystemResetWarning,0835.8,5.00,000.00,028.0,026.3,000.0,036.5,029.7,11.4,0000.0,0010.83,0004.19,0003.38
2023-09-26 03:39:00,SystemResetWarning,0835.8,5.00,000.00,028.1,026.5,000.0,036.5,029.7,11.4,0000.0,0009.77,0004.21,0003.38
2023-09-26 03:40:00,SystemResetWarning,0835.8,5.00,000.00,028.1,026.6,000.0,036.5,029.8,11.4,0000.9,0009.72,0004.18,0003.37
2023-09-26 03:41:00,SystemResetWarning,0835.9,4.99,000.00,028.1,026.8,000.0,036.5,029.8,11.4,0001.0,0010.23,0004.21,0003.38
2023-09-26 03:42:00,SystemResetWarning,0835.8,5.00,000.00,028.1,026.9,000.0,036.5,029.8,11.3,0000.0,0011.34,0004.20,0003.37
2023-09-26 03:43:00,SystemResetWarning,0835.9,5.00,000.00,028.2,027.0,000.0,036.5,029.9,11.3,0000.4,0011.52,0004.18,0003.37
2023-09-26 03:44:00,SystemResetWarning,0835.9,5.00,000.00,028.2,027.0,000.0,036.5,029.9,11.3,0000.0,0011.65,0004.18,0003.37
2023-09-26 03:45:00,SystemResetWarning,0835.9,5.00,000.00,028.2,027.1,000.0,036.5,029.9,11.2,0000.0,0012.26,0004.17,0003.36
2023-09-26 03:46:00,SystemResetWarning,0835.9,5.00,000.00,028.2,027.1,000.0,036.6,029.9,11.2,0000.0,0012.32,0004.16,0003.36
2023-09-26 03:47:00,SystemResetWarning,0835.9,5.00,000.00,028.3,027.2,000.0,036.6,030.0,11.1,0000.0,0012.47,0004.22,0003.38
2023-09-26 03:48:00,SystemResetWarning,0835.9,5.01,000.00,028.3,027.2,000.0,036.6,030.0,11.1,0000.0,0012.28,0004.20,0003.39
2023-09-26 03:49:00,SystemResetWarning,0835.9,5.00,000.00,028.3,027.2,000.0,036.6,030.0,11.1,0000.0,0012.35,0004.19,0003.41
2023-09-26 03:50:00,SystemResetWarning,0835.9,5.00,000.00,028.3,027.3,000.0,036.6,030.1,11.1,0001.3,0012.24,0004.18,0003.42
2023-09-26 03:51:00,SystemResetWarning,0835.9,5.00,000.00,028.4,027.3,000.0,036.6,030.1,11.1,0000.0,0013.20,0004.24,0003.44
2023-09-26 03:52:00,SystemResetWarning,0835.9,5.00,000.00,028.4,027.2,000.0,036.7,030.1,11.1,0000.0,0013.64,0004.23,0003.46
2023-09-26 03:53:00,SystemResetWarning,0835.9,4.99,000.00,028.4,025.5,000.0,036.7,030.0,11.0,0000.0,0013.25,0004.27,0003.47
2023-09-26 03:54:00,SystemResetWarning,0835.9,5.01,000.00,028.3,024.3,000.0,036.6,029.9,11.1,0000.0,0013.06,0004.28,0003.48
2023-09-26 03:55:00,SystemResetWarning,0835.8,5.01,000.00,028.2,024.3,000.0,036.6,029.6,11.2,0000.0,0012.87,0004.29,0003.49
2023-09-26 03:56:00,SystemResetWarning,0835.8,5.01,000.00,028.1,024.6,000.0,036.6,029.5,11.3,0000.6,0013.60,0004.31,0003.49
2023-09-26 03:57:00,SystemResetWarning,0835.8,5.00,000.00,028.0,025.0,000.0,036.6,029.5,11.3,0000.0,0014.46,0004.33,0003.50
2023-09-26 03:58:00,SystemResetWarning,0835.8,5.00,000.00,028.0,025.3,000.0,036.5,029.5,11.3,0000.0,0015.31,0004.29,0003.49
2023-09-26 03:59:00,SystemResetWarning,0835.8,5.00,000.00,028.0,025.6,000.0,036.5,029.5,11.4,0000.0,0015.59,0004.31,0003.49
